Theta_e
308 308 307 305 305 305 305 306 306 308 308 309 310 311 312 313 314 316 323 320 319 322 323 324 326 327 328 328 331 330 334 337 337 341 339 338 338 337 337 337 338 338 338 337 340 343 344 339 339 342 340 337 337 335
308 308 307 306 306 306 306 306 306 307 308 309 310 310 311 312 313 313 317 320 317 319 320 322 320 323 326 327 326 327 329 332 336 335 336 338 337 336 338 340 337 338 339 340 341 340 342 338 337 336 336 336 336 335
308 308 307 307 306 307 307 307 306 307 307 308 309 311 311 311 312 313 313 316 317 322 323 324 326 328 325 324 324 324 325 325 327 325 332 335 337 334 336 335 334 332 333 335 337 338 339 338 338 336 334 333 333 332
307 307 308 308 308 308 308 308 308 307 307 307 308 310 311 311 312 313 312 318 322 323 325 325 326 326 326 325 325 325 326 326 325 324 327 330 333 333 333 331 331 330 329 332 334 336 332 332 331 331 331 330 331 331
308 308 308 308 308 309 309 309 308 308 308 308 308 309 311 311 312 315 319 322 322 322 325 324 321 325 325 325 327 327 326 325 325 326 327 327 329 329 328 328 328 329 327 329 330 332 334 332 330 330 331 331 331 331
308 308 308 309 309 309 309 309 309 309 309 308 308 309 311 311 312 323 327 325 321 312 323 326 324 325 327 327 327 327 327 327 327 327 327 327 328 327 327 328 329 327 327 327 328 330 329 331 331 331 332 332 332 331
308 308 308 308 309 309 309 310 310 310 309 308 309 310 311 311 312 320 324 322 315 312 326 328 328 328 327 327 326 326 328 328 328 326 328 328 329 329 328 328 328 327 327 327 330 331 330 330 331 332 332 332 332 331
308 308 308 308 308 308 309 310 310 310 309 308 309 312 314 315 323 323 320 320 313 316 323 327 330 328 327 328 325 325 329 329 331 330 329 328 328 328 331 329 330 328 327 328 330 331 331 332 332 331 331 331 331 331
308 308 308 308 308 308 308 309 310 310 309 309 312 317 323 323 325 324 319 314 318 318 327 329 332 334 325 325 328 329 329 331 329 328 331 331 330 332 331 330 328 328 331 331 333 333 333 332 332 331 331 330 330 331
308 308 308 309 308 308 308 308 308 308 309 310 317 320 326 324 322 314 322 326 326 326 323 322 322 326 326 328 330 330 331 332 329 329 330 332 331 331 329 330 334 333 333 333 332 332 332 331 331 330 330 332 334 334
308 308 308 309 309 308 307 307 307 308 309 309 310 319 319 315 313 324 328 330 329 329 327 327 327 330 327 331 330 328 332 332 330 329 331 335 336 328 326 328 327 327 327 329 332 331 331 330 330 333 334 336 336 335
308 308 308 308 309 308 306 306 308 308 308 308 311 311 318 321 323 326 329 327 328 331 328 328 327 326 326 326 329 330 333 332 330 328 333 339 333 328 326 329 327 329 332 333 331 331 332 333 334 333 333 332 331 332
308 308 308 308 308 307 306 307 308 308 308 315 317 319 322 322 319 326 327 330 332 329 327 325 327 324 324 329 329 332 333 331 328 330 334 335 330 333 330 333 335 334 334 332 332 332 332 332 333 333 333 333 333 334
308 308 308 308 307 307 306 308 307 308 312 316 320 313 321 322 324 327 328 329 325 324 324 324 323 324 323 327 330 331 331 332 332 331 337 335 333 331 332 332 332 335 334 333 332 332 332 333 332 333 333 334 336 336
308 309 308 308 308 306 308 308 307 309 311 313 317 315 322 321 322 322 322 322 322 323 322 322 322 322 325 327 331 331 332 334 335 334 334 328 328 330 329 330 330 332 333 331 331 328 327 331 335 334 334 334 333 330
309 308 308 308 307 307 308 308 310 311 311 311 314 318 320 322 322 322 322 322 321 321 321 321 325 326 326 329 328 329 331 333 331 330 328 326 328 329 327 326 331 330 330 328 327 327 331 332 333 335 333 332 331 325
308 307 308 307 308 308 307 310 311 313 312 312 315 316 316 318 320 320 321 322 321 321 324 322 323 326 327 330 329 330 330 329 327 327 325 325 329 329 327 326 330 331 331 331 327 330 331 332 332 330 332 332 332 329
307 307 308 307 307 307 310 310 312 313 312 313 314 316 318 319 320 321 321 321 320 321 321 322 321 323 326 326 327 327 324 324 326 326 324 323 326 326 325 328 328 327 327 327 327 328 331 329 330 327 326 329 330 330
306 305 307 308 307 307 310 311 312 313 312 313 315 316 317 318 319 320 321 320 319 319 320 320 322 322 324 323 323 321 322 324 326 326 326 326 325 327 329 330 330 330 330 330 329 331 330 326 327 326 327 328 328 331
305 307 308 307 307 309 311 312 312 313 312 314 314 316 317 318 318 318 319 320 320 321 319 320 321 320 322 323 321 323 325 326 326 326 327 326 326 324 326 328 329 330 331 331 331 330 329 326 330 328 326 329 331 332
308 309 308 308 309 309 311 312 314 314 314 314 314 315 317 318 318 320 321 321 320 321 320 321 322 321 321 321 323 324 323 322 322 323 327 327 325 325 329 329 329 328 326 328 329 329 327 329 326 327 328 330 330 330
309 309 309 309 309 310 310 311 312 313 313 313 314 316 318 320 322 322 323 322 323 323 321 321 322 323 323 323 323 324 323 323 322 323 324 327 329 327 326 324 324 323 324 325 324 325 327 328 329 329 328 331 329 332
308 308 309 309 311 312 310 311 312 313 313 314 316 319 320 322 323 324 325 323 322 322 322 322 323 324 324 324 325 326 325 326 327 327 328 328 327 325 327 328 325 326 324 325 327 330 331 331 331 330 331 328 324 324
308 308 311 311 311 310 312 312 311 312 313 315 317 320 323 324 324 324 325 324 324 323 323 324 323 323 323 325 326 326 327 327 327 328 329 328 328 327 328 328 328 328 327 327 330 331 332 331 331 328 325 327 331 330
307 309 310 309 311 312 312 312 312 313 316 317 318 320 322 322 325 324 323 323 323 323 322 323 323 323 324 324 324 325 325 325 327 328 326 328 326 326 326 328 328 329 330 330 330 330 331 331 330 328 328 328 327 326
308 309 310 312 312 313 313 313 315 316 317 319 319 320 321 324 323 322 322 322 322 322 322 322 322 323 323 323 323 324 324 324 324 326 328 328 326 326 327 326 326 327 329 329 329 329 330 329 327 326 324 324 324 322
308 311 312 312 313 313 314 313 314 315 317 318 321 321 324 324 324 323 322 322 322 321 320 320 321 321 321 321 322 322 323 324 325 326 328 327 327 327 326 326 325 323 325 326 327 326 325 324 323 321 320 320 319 319
310 312 312 313 312 312 314 314 314 316 318 319 321 323 323 324 325 323 321 320 321 319 319 319 320 322 322 322 322 323 323 324 325 325 325 325 325 325 325 325 326 325 322 320 321 323 323 322 320 319 317 316 316 316
310 311 311 312 313 314 314 314 314 315 315 318 319 321 321 320 322 323 321 322 321 318 318 319 321 322 323 323 322 322 323 323 323 323 325 324 324 324 324 323 322 321 321 321 319 318 317 317 317 316 316 316 315 313
309 311 312 312 313 313 313 314 314 315 315 315 316 317 317 318 321 323 323 323 319 319 319 321 321 322 322 323 323 322 321 321 321 322 323 323 323 323 322 320 319 319 318 318 317 316 315 314 314 313 313 313 312 311
311 312 311 311 312 312 313 313 313 314 314 315 315 316 317 317 321 323 322 321 319 318 320 320 321 321 322 322 321 319 319 321 322 323 322 322 320 319 318 318 318 317 316 315 314 314 314 314 313 313 312 312 311 311
311 311 312 313 312 311 312 312 313 314 314 315 316 316 316 317 319 321 321 320 320 319 320 320 320 320 321 321 319 319 319 317 318 317 317 318 318 317 317 317 316 315 314 314 314 313 313 312 311 311 310 310 310 310
311 312 312 312 313 314 314 314 315 316 317 317 317 317 317 319 322 320 319 318 319 320 321 320 320 320 320 319 318 316 313 312 311 312 313 314 314 315 315 315 315 314 314 313 313 312 311 310 310 309 309 308 308 308
Wind_Speed
15 16 17 18 19 21 22 23 24 24 22 21 19 17 15 13 9 4 2 7 7 6 22 14 8 7 11 9 3 14 9 10 6 1 2 2 3 5 5 4 6 4 3 4 3 3 5 6 5 1 6 9 8 6
14 15 17 18 19 20 21 23 24 24 24 22 20 19 16 13 10 6 5 10 9 9 12 14 19 17 15 11 11 5 9 9 5 4 4 3 3 2 5 4 7 4 2 3 2 5 7 5 9 9 4 2 2 2
14 15 16 17 19 20 21 22 23 24 24 23 22 20 17 14 11 9 7 9 9 8 18 10 6 7 4 9 9 11 12 6 9 14 6 3 3 2 2 5 7 8 16 3 6 6 5 12 11 11 11 5 4 5
15 15 16 17 19 20 21 21 22 23 23 23 22 21 17 13 11 8 7 6 8 6 5 4 4 3 5 6 9 11 12 13 15 16 9 3 1 4 3 5 4 6 12 8 6 2 5 8 9 11 11 10 8 7
15 16 17 18 19 20 21 21 22 22 23 23 22 20 16 11 9 6 5 11 8 6 5 15 19 7 8 7 6 8 10 11 12 9 4 4 6 7 9 8 9 13 6 4 7 15 4 1 4 8 7 7 8 10
16 17 18 19 20 21 22 22 22 22 22 22 20 18 14 9 4 3 4 2 1 10 3 4 10 8 4 4 8 10 11 12 13 14 8 8 12 13 4 4 7 22 28 28 16 16 13 12 6 5 5 10 13 17
16 17 20 21 21 21 22 22 22 22 21 21 19 15 10 6 4 1 1 3 10 8 2 6 7 3 5 7 8 14 14 13 13 13 10 15 17 20 7 12 13 21 29 32 23 14 17 15 9 8 9 10 10 14
16 18 20 23 23 23 23 23 22 22 20 18 15 11 5 1 3 3 3 10 10 3 4 3 4 4 2 5 8 14 5 10 12 14 12 8 12 12 4 13 21 23 28 26 16 18 11 8 10 13 14 15 17 16
15 19 21 23 25 25 24 24 23 22 20 15 10 4 1 3 2 6 13 14 8 4 4 4 3 2 10 12 8 12 9 4 12 7 11 7 4 5 10 22 25 25 16 22 4 5 13 19 18 13 15 19 20 22
16 18 20 23 25 26 25 25 24 23 20 9 4 5 2 4 7 13 4 1 0 3 3 5 7 4 14 10 7 11 8 3 3 5 12 5 3 14 29 27 26 25 27 27 7 8 10 8 16 17 17 18 19 21
16 18 20 22 24 26 25 25 24 23 18 11 6 4 7 9 5 2 4 7 7 6 8 7 8 4 11 4 2 5 4 3 3 4 3 4 4 8 16 23 28 23 27 24 29 12 13 15 19 17 17 17 20 24
16 17 19 22 24 25 23 23 22 20 18 16 11 10 5 2 4 4 2 4 2 2 4 7 8 8 4 3 3 6 4 3 5 8 4 3 2 14 13 19 18 17 13 29 20 18 17 18 18 22 27 25 29 32
17 17 19 21 23 21 21 20 17 18 17 5 4 3 3 3 3 3 4 3 1 4 3 6 8 9 4 6 2 3 4 4 14 3 2 2 10 12 10 13 19 17 16 16 18 19 21 20 20 24 26 24 24 28
17 17 19 20 20 18 20 17 16 17 4 3 4 5 3 4 4 2 3 4 5 6 8 9 6 4 7 2 4 3 4 4 3 3 4 3 10 16 18 18 17 18 18 16 17 19 18 22 23 22 23 27 27 28
17 16 18 16 16 19 19 14 12 12 3 3 5 3 5 9 13 7 4 5 7 5 6 9 10 5 4 3 2 2 3 4 4 3 2 12 15 14 18 21 21 21 19 22 24 25 21 22 24 24 24 25 27 29
16 16 13 16 20 21 18 11 6 5 3 3 5 5 8 10 7 14 10 7 9 10 8 5 4 3 3 2 3 5 4 3 3 4 13 20 17 18 22 23 21 21 21 22 20 20 23 22 26 28 28 25 28 19
12 9 11 18 21 19 10 5 2 2 3 4 6 10 14 12 11 12 8 7 9 7 4 3 2 2 5 3 3 3 3 5 19 14 14 21 22 24 29 24 22 20 20 20 25 22 23 23 23 25 24 23 25 25
9 6 14 16 18 9 5 1 2 3 5 7 9 11 11 11 11 8 7 7 5 3 3 3 7 3 3 4 4 3 14 16 21 14 18 24 26 27 23 22 20 19 21 24 21 23 21 24 21 20 21 21 18 18
10 11 9 10 10 7 3 2 4 4 6 10 12 14 13 13 9 6 4 4 2 2 1 2 4 4 5 8 11 16 24 25 18 17 18 23 22 22 22 21 20 21 24 26 22 27 23 22 24 25 25 22 24 29
9 8 6 5 4 3 3 4 4 5 5 9 14 12 13 11 13 12 11 9 4 1 3 3 5 13 12 22 24 24 21 19 21 22 21 23 21 23 24 26 23 22 22 25 16 16 21 21 20 20 21 26 24 18
5 2 4 4 5 5 4 4 4 5 7 6 12 14 11 15 20 21 12 10 10 4 5 6 10 21 28 29 24 22 25 25 23 22 22 22 27 25 19 23 26 26 25 27 20 20 23 17 18 15 16 19 18 18
4 5 4 4 3 3 5 6 6 8 5 10 16 13 8 8 6 4 5 6 3 1 4 13 19 22 22 22 23 22 22 24 21 21 23 23 19 23 22 24 26 26 21 18 22 13 16 5 11 16 15 14 15 23
5 4 4 4 3 4 6 4 3 3 3 4 6 4 5 4 2 3 2 1 1 4 10 15 16 15 16 17 19 17 16 17 16 17 15 14 15 19 19 17 14 22 15 11 11 17 15 11 10 3 8 19 12 10
6 3 3 3 7 4 3 4 3 3 4 5 3 3 3 3 5 3 1 1 4 10 11 15 14 16 16 12 14 14 13 16 16 14 12 13 15 17 14 14 7 13 12 14 12 13 12 13 14 13 12 12 16 15
3 4 4 5 5 4 4 3 4 4 3 3 3 3 2 1 1 2 0 2 8 11 13 13 11 11 12 12 15 14 15 15 16 13 13 14 17 14 11 11 9 16 14 16 13 13 13 11 17 20 22 21 20 19
3 5 7 6 5 5 4 3 4 5 6 4 5 5 1 1 2 2 1 2 7 10 10 12 12 13 11 12 15 16 17 17 19 15 16 15 16 18 12 14 17 15 18 17 16 16 18 18 17 15 19 19 18 21
3 5 9 8 4 4 5 7 9 6 4 2 3 2 2 2 2 2 1 3 4 8 7 8 8 12 15 19 17 13 15 18 15 15 12 14 16 16 16 17 21 20 15 15 18 16 13 15 17 17 17 17 18 16
8 5 9 10 12 7 5 4 3 2 3 3 5 2 1 2 2 2 2 2 2 7 11 8 10 14 17 22 17 15 13 14 14 15 12 14 18 18 15 14 13 16 24 25 17 15 15 16 18 19 20 23 22 20
10 8 8 7 6 6 5 5 5 4 6 4 1 2 3 4 4 1 5 2 5 7 12 7 7 12 10 11 15 15 13 14 16 16 17 17 18 19 17 14 14 17 18 18 18 19 23 20 18 16 17 16 18 21
14 13 6 6 6 4 9 7 7 6 7 8 7 10 9 5 3 1 2 3 7 10 10 12 13 13 11 10 11 11 12 12 10 9 10 15 15 13 13 14 16 13 16 15 15 17 18 17 16 18 19 20 17 17
4 7 11 13 12 14 15 16 12 10 12 10 10 12 14 8 2 1 3 5 6 9 8 10 12 12 11 10 10 11 11 13 12 6 4 6 9 15 15 12 13 13 13 12 14 17 17 18 18 18 17 17 18 18
7 10 8 4 7 13 13 14 18 14 13 14 15 12 13 13 4 3 3 4 5 8 9 10 11 13 9 6 6 10 9 11 13 14 13 10 8 8 14 12 13 13 12 13 14 14 15 17 16 16 19 21 20 19
9 9 8 8 8 7 12 11 5 6 12 15 15 14 11 5 2 3 2 4 5 8 9 8 10 7 8 10 9 12 18 23 22 19 16 13 12 12 11 12 15 15 15 16 17 16 16 17 17 16 16 16 20 19
Wind_Direction
360 1 3 5 6 8 8 9 9 9 9 10 9 7 5 4 8 30 93 13 2 288 273 295 293 327 328 338 10 333 352 360 339 12 159 250 272 266 293 293 301 275 272 258 253 272 296 60 53 75 192 183 200 132
359 360 359 0 1 2 4 4 4 4 5 6 6 3 1 357 354 351 262 289 295 263 259 282 280 269 256 255 310 319 303 322 336 19 360 352 328 294 317 297 325 336 284 240 205 228 202 164 136 106 131 74 114 142
357 357 355 354 355 356 358 359 359 359 360 360 359 359 358 355 349 343 341 335 359 317 305 286 290 331 224 259 262 264 286 295 309 331 299 280 267 78 291 282 314 315 326 326 8 320 353 2 19 53 70 65 23 359
354 353 351 349 348 349 351 353 354 354 354 353 353 352 352 351 348 342 344 22 23 313 280 351 103 24 224 283 245 255 278 283 289 295 286 254 255 297 260 283 287 290 320 295 299 341 57 10 27 19 10 5 348 330
349 349 347 345 344 343 344 346 348 348 348 347 348 347 348 350 354 12 62 67 24 5 307 296 311 282 269 228 238 256 265 272 286 283 249 254 271 296 278 276 273 271 251 297 273 294 240 128 342 334 321 316 307 304
349 349 347 345 342 341 340 341 343 344 343 342 342 343 344 346 14 60 80 192 264 344 297 295 305 265 249 253 276 274 270 263 264 269 287 272 270 281 265 258 270 288 292 294 291 311 325 309 311 310 291 293 287 293
346 349 349 346 343 340 339 339 340 341 340 337 337 337 338 342 347 104 135 332 319 328 310 295 293 211 214 285 266 262 248 238 231 249 240 263 258 256 265 274 280 297 296 304 315 333 331 316 323 343 336 312 289 294
342 347 346 346 345 342 340 339 339 339 338 336 334 336 347 52 33 54 64 344 334 311 249 284 270 276 130 340 326 352 297 286 262 252 258 242 270 275 269 276 280 277 280 288 302 311 317 329 325 332 329 315 316 314
334 341 343 344 344 343 341 340 339 339 340 339 338 336 40 25 21 262 307 310 290 223 308 288 301 304 19 323 321 331 304 283 273 242 249 241 199 224 339 306 281 285 308 280 290 328 339 343 324 322 318 315 312 310
325 333 338 341 342 342 341 340 340 341 345 338 2 358 189 231 309 308 314 289 104 208 234 254 292 287 310 353 355 346 290 236 262 255 260 192 170 4 3 15 42 28 17 347 328 328 316 278 285 320 323 320 321 323
315 328 335 337 338 340 341 341 342 346 352 12 356 287 292 309 319 282 253 213 182 203 208 233 236 355 333 43 340 271 291 299 290 269 202 220 52 329 352 7 3 353 347 338 322 336 323 323 325 340 333 333 333 320
307 321 328 334 335 337 339 342 343 352 350 326 310 304 347 358 248 286 237 233 259 311 52 359 333 292 279 40 319 309 264 231 247 303 281 77 302 315 353 22 31 25 342 310 326 340 345 352 341 329 322 307 307 311
298 315 324 329 331 333 337 339 341 340 340 346 350 325 252 270 28 239 209 227 76 25 68 338 320 348 330 38 340 280 265 266 316 241 79 55 302 326 323 345 358 358 357 357 350 344 343 341 335 327 321 328 303 298
295 308 318 324 326 330 333 340 337 344 356 303 279 312 212 208 250 208 29 46 59 359 337 336 324 300 320 286 213 260 255 278 263 266 67 344 326 341 340 335 345 346 349 329 321 323 331 337 328 321 317 317 313 321
296 305 314 322 320 326 332 332 329 335 4 292 306 249 239 278 291 329 14 336 315 296 348 346 327 318 282 253 221 275 265 249 29 40 318 312 325 325 328 327 329 326 323 316 320 332 318 325 320 322 320 312 315 321
297 307 313 318 327 332 327 338 5 350 308 276 257 276 299 291 316 5 6 51 29 9 1 24 356 302 277 305 256 230 290 17 5 321 316 328 314 316 327 316 317 307 305 316 317 317 323 322 320 324 321 320 326 326
294 305 310 314 319 320 307 338 333 258 260 253 251 263 257 283 284 298 327 25 18 29 24 352 267 318 309 257 267 19 35 314 311 308 339 339 326 319 322 312 307 302 313 307 319 325 327 322 328 337 340 333 333 332
277 260 286 308 323 327 353 321 273 262 252 258 263 278 284 298 317 356 35 33 42 75 25 3 326 268 276 272 317 340 305 282 288 300 334 334 322 322 316 311 312 311 313 308 315 321 314 320 316 334 331 326 328 337
279 287 307 305 324 336 303 265 228 262 258 277 281 284 301 308 301 0 6 357 5 252 221 288 257 247 246 275 284 325 313 300 312 322 320 322 318 317 316 314 306 305 307 305 317 315 312 323 314 322 333 323 315 319
283 291 281 277 289 285 268 251 231 263 281 308 308 289 297 295 277 270 278 269 220 218 215 232 244 271 319 322 319 313 315 311 324 325 314 313 308 318 322 325 326 332 341 345 329 326 323 327 344 331 334 339 345 352
294 286 260 284 273 240 270 286 253 256 295 281 281 301 286 281 274 266 245 228 195 215 231 255 285 296 308 309 310 313 311 314 313 307 304 302 309 322 325 324 325 327 346 2 1 331 313 350 346 333 314 342 343 350
259 263 274 271 253 238 253 238 257 301 281 279 295 278 261 271 256 214 225 176 232 270 306 303 306 313 307 301 303 310 308 306 301 300 304 306 305 316 321 323 320 332 338 336 353 313 303 297 298 320 333 349 22 24
247 262 251 233 241 241 262 236 247 254 266 268 284 255 233 239 225 178 154 109 286 315 331 330 324 318 319 321 318 317 328 327 328 331 321 308 317 335 336 333 334 340 336 309 356 330 317 331 332 315 338 336 333 18
218 245 237 225 209 252 245 203 231 254 256 244 251 259 270 232 176 161 142 347 329 328 325 338 334 339 340 340 351 355 357 355 346 352 360 353 344 352 359 355 339 349 342 328 348 7 20 12 20 51 45 65 70 73
204 229 211 242 235 232 234 215 207 230 250 226 248 269 244 270 94 49 331 287 344 349 349 7 7 359 3 5 8 11 5 1 1 3 9 354 352 343 358 356 357 16 10 6 357 12 32 29 61 56 61 63 56 58
215 219 203 209 214 215 199 241 219 222 252 235 227 251 183 124 120 207 222 342 343 348 343 360 5 358 9 2 353 4 5 4 5 8 9 7 7 20 27 15 16 25 24 29 31 45 63 60 54 60 60 60 68 65
244 243 214 226 245 258 264 265 262 259 268 266 269 236 238 183 160 136 164 333 336 332 349 350 359 359 350 350 355 4 15 13 14 11 16 12 35 27 52 45 46 43 43 50 48 45 55 63 62 54 54 51 50 51
234 256 237 227 221 236 261 282 280 256 243 281 306 250 292 13 80 114 323 351 314 1 9 17 23 16 10 8 7 12 27 26 28 28 31 51 55 47 47 52 35 35 34 40 62 68 58 61 58 60 49 53 56 56
227 239 255 251 233 228 231 224 230 246 343 350 28 309 33 27 22 18 2 33 305 339 3 21 6 24 3 359 13 14 20 23 16 20 18 26 42 49 45 46 47 42 36 38 48 58 61 65 65 58 58 60 59 52
245 238 213 235 232 234 232 232 257 256 272 301 298 296 315 324 346 351 358 266 339 358 22 16 6 3 357 354 10 17 20 359 360 28 16 17 14 19 46 45 40 51 51 55 56 59 65 55 59 57 55 55 58 59
233 223 216 240 253 252 264 267 263 263 270 270 278 288 297 292 210 319 266 331 350 5 13 355 354 5 10 14 16 16 7 24 29 68 57 38 59 61 40 37 68 50 49 49 50 52 54 56 56 55 50 47 44 48
223 226 238 228 242 258 266 271 276 260 269 276 268 250 259 267 222 183 297 7 0 10 2 354 352 3 11 49 27 16 37 49 49 51 51 45 32 40 64 77 50 56 52 62 62 52 46 45 40 39 42 40 43 45
214 233 237 249 253 253 240 236 240 252 253 239 237 234 247 252 179 177 137 48 31 4 358 348 356 19 60 51 47 86 69 59 49 46 43 39 40 56 74 68 65 63 66 63 64 66 60 51 43 53 44 35 35 34